Location: Angwan Shehu
(11.2514°N, 7.4613°E)
Time: 06:47:24
(UTC+00:00)

Explorer 7 - All Passes

Search period start: 20 April 2021 00:00
Search period end: 30 April 2021 00:00
Orbit: 484 x 677 km, 50.3° (Epoch: 19 April)

Date Brightness Start Highest point End Pass type
(mag) Time Alt. Az. Time Alt. Az. Time Alt. Az.
20 Apr - 03:20:26 10° NNW 03:25:07 50° NE 03:29:52 10° SE visible
20 Apr - 05:02:58 10° W 05:05:27 14° SW 05:07:57 10° SSW daylight
20 Apr - 17:08:58 10° SW 17:12:35 46° NW 17:16:17 10° NNE daylight
21 Apr - 03:24:41 10° NW 03:29:33 84° SW 03:34:26 10° SE visible
21 Apr - 15:34:18 10° SSE 15:36:49 17° SE 15:39:21 10° E daylight
21 Apr - 17:14:06 10° W 17:17:03 22° NW 17:20:04 10° N daylight
22 Apr - 01:50:14 10° N 01:53:22 17° NE 01:56:33 10° E night (unlit)
22 Apr - 03:29:21 10° NW 03:33:55 43° SW 03:38:33 10° SSE visible
22 Apr - 15:37:42 10° SSW 15:41:10 37° SE 15:44:41 10° ENE daylight
22 Apr - 17:20:39 10° WNW 17:21:37 11° NW 17:22:34 10° NNW daylight
23 Apr - 01:53:39 10° NNW 01:57:53 31° NE 02:02:11 10° ESE night (unlit)
23 Apr - 03:34:31 10° WNW 03:38:17 23° SW 03:42:05 10° S visible
23 Apr - 15:41:49 10° SW 15:45:33 89° NW 15:49:19 10° NE daylight
24 Apr - 01:57:37 10° NNW 02:02:19 59° NE 02:07:08 10° SE night (unlit)
24 Apr - 03:40:59 10° WSW 03:42:39 12° SW 03:44:20 10° SW night (unlit)
24 Apr - 15:46:30 10° WSW 15:49:58 37° NW 15:53:29 10° NNE daylight
25 Apr - 00:25:08 10° NE 00:26:03 10° NE 00:26:59 10° ENE night (unlit)
25 Apr - 02:01:57 10° NW 02:06:43 71° SW 02:11:35 10° SSE night (unlit)
25 Apr - 14:11:18 10° S 14:14:10 21° SE 14:17:02 10° ENE daylight
25 Apr - 15:51:50 10° W 15:54:27 18° NW 15:57:04 10° N daylight
26 Apr - 00:27:13 10° N 00:30:36 19° NE 00:34:04 10° E night (unlit)
26 Apr - 02:06:43 10° WNW 02:11:05 36° SW 02:15:33 10° SSE night (unlit)
26 Apr - 14:14:55 10° SSW 14:18:32 46° SE 14:22:07 10° NE daylight
27 Apr - 00:30:47 10° NNW 00:35:04 35° NE 00:39:30 10° ESE night (unlit)
27 Apr - 02:12:05 10° W 02:15:27 19° SW 02:18:53 10° S night (unlit)
27 Apr - 14:19:11 10° SW 14:22:54 71° NW 14:26:38 10° NNE daylight
28 Apr - 00:34:49 10° NNW 00:39:28 69° NE 00:44:18 10° SE night (unlit)
28 Apr - 12:45:39 10° SSE 12:47:08 12° SE 12:48:35 10° ESE daylight
28 Apr - 14:23:59 10° WSW 14:27:19 30° NW 14:30:39 10° NNE daylight
28 Apr - 23:01:33 10° NNE 23:03:17 12° NE 23:05:03 10° ENE night (unlit)
29 Apr - 00:39:15 10° NW 00:43:51 60° SW 00:48:38 10° SSE night (unlit)
29 Apr - 12:48:18 10° S 12:51:30 25° SE 12:54:37 10° ENE daylight
29 Apr - 14:29:36 10° W 14:31:48 15° NW 14:34:00 10° NNW daylight
29 Apr - 23:04:14 10° N 23:07:48 22° NE 23:11:28 10° E night (unlit)
